Regional Weather Roundup
Issued by NWS Spokane, WA

Home | Current Version | Previous Version | Text Only | Print | Product List | Glossary On
Versions: 1 2 3 4 5 6 7 8 9 10 11 12 13 14 15 16 17 18 19 20 21 22 23 24 25 26 27 28 29 30 31 32 33 34 35 36 37 38 39 40 41 42 43 44 45 46 47 48 49 50
000
NZUS01 KOTX 210700
RWROTX

Eastern Washington/Northern Idaho Roundup
National Weather Service, Spokane WA
1200 AM PDT MON AUG 21 2017

Note: "fair" indicated few or no clouds below 12,000 feet with no
significant weather and/or obstructions to visibility.

...Northeast Washington and Northern Idaho Panhandle...

CITY           SKY/WX    TMP DP  RH WIND       PRES   REMARKS
Spokane Intl   PTCLDY    65  38  36 CALM      30.09R
Spokane Downto CLEAR     61  40  45 E5        30.08R
Coeur d Alene  CLEAR     58  45  62 CALM      30.10R
Deer Park      CLEAR     53  36  52 N5        30.09R

...Southeast Washington and southern Idaho Panhandle...

CITY           SKY/WX    TMP DP  RH WIND       PRES   REMARKS
Walla Walla    CLEAR     66  43  43 E8        30.03R
Pullman/Moscow CLEAR     55  38  52 CALM      30.11R
Lowell           N/A     60  46  59 CALM      30.09R

...Columbia Basin...

CITY           SKY/WX    TMP DP  RH WIND       PRES   REMARKS
Ephrata        CLEAR     63  40  42 N5        30.03R
Moses Lake     CLEAR     65  47  52 SE5       30.03R
Pasco          CLEAR     58  54  86 CALM      30.01R
Hermiston      CLEAR     62  44  51 CALM      30.00R
Pendleton      CLEAR     62  39  42 SE8       30.04R

...East Slopes Cascades...

CITY           SKY/WX    TMP DP  RH WIND       PRES   REMARKS
The Dalles     CLEAR     73  55  53 NW14G21   30.00S
Yakima         CLEAR     69  49  48 NW7       30.04S
Ellensburg     CLEAR     66  49  54 NW13      30.06S
Wenatchee      CLEAR     72  48  42 NW14      30.03R
Omak           CLEAR     72  44  36 N13       30.04S
Sunnyside        N/A     54  51  87 CALM      30.02R

...Southern British Columbia...

CITY           SKY/WX    TMP DP  RH WIND       PRES   REMARKS

...Western Montana...

CITY           SKY/WX    TMP DP  RH WIND       PRES   REMARKS
Kalispell      SUNNY     52  42  69 NW5       30.09R
Missoula       CLEAR     57  38  48 SE5       30.11R

...Neighboring Cities...

CITY           SKY/WX    TMP DP  RH WIND       PRES   REMARKS
Seattle        PTCLDY    64  55  72 NE7       30.13S
Portland       CLEAR     67  58  72 NW8       30.07R
Boise          CLOUDY    68  37  32 SE3       30.01R
Great Falls    CLOUDY    57  30  35 SW5       30.09R



USA.gov is the U.S. government's official web portal to all federal, state and local government web resources and services.